Voltar ao catálogo

CRRES DEB

CANISTER

AtivoHEO
NORAD 20811·DEBRIS·🇺🇸 United States

Lançado Jul 25, 1990 de Cape Canaveral Space Force Station

Loading…

Próximas Passagens (próximas 24 horas)

TLE

AtualizadoSource: Space-Track

Época: Sep 14, 2026, 01:55 UTC

1 20811U 90065C   26257.08024522  .00001072  00000-0  63308-3 0  9990
2 20811  17.4847 200.2233 6928087  67.1839 349.1677  2.70343195123862

Acompanhe CRRES DEB em tempo real com AllMySat

Download on the App Store